EUTELSAT 5 WEST A

Last updated on Nov. 12, 2019, 4:19 a.m. UTC

1 27460U 02035A   19315.10892668 -.00000030  00000-0  00000+0 0  9991
2 27460   0.0581  94.9817 0005588 132.2525 216.9884  1.00273850 63585
UTC
Height (km)
Latitude
Longitude
Inclination
Orbital Period
UTC large
Height (km)
Speed (km/s)
/
Latitude / Longitude
Inclination (degrees)
Orbital Period (minutes)
Azimuth
Elevation
Range (km)
Doppler Factor
iOS Compass Heading
iOS Angle

Next 30 passes for location: Hong Kong

Rise time Rise Azimuth (degrees) Set time Set Azimuth (degrees) Duration Max altitude (degrees)

No matching passes for this satellites